Change the Weather History Date:

Wednesday, May 8, 2013

  Actual Average Record
Temperature  
Mean Temperature 54 °F 58 °F  
Max Temperature 60 °F 74 °F 93 °F (1895)
Min Temperature 47 °F 42 °F 32 °F (1984)
Degree Days  
Heating Degree Days 11 7  
Month to date heating degree days 131 68  
Since 1 July heating degree days 5644 5508  
Cooling Degree Days 0 0  
Month to date cooling degree days 0 0  
Year to date cooling degree days 1 2  
Growing Degree Days 4 (Base 50)    
Moisture  
Dew Point 42 °F    
Average Humidity 69    
Maximum Humidity 93    
Minimum Humidity 44    
Precipitation  
Precipitation 0.40 in 0.05 in 1.14 in (1958)
Month to date precipitation 0.54 0.41  
Year to date precipitation 1.74 3.39  
Snow  
Snow 0.00 in 0.00 in T in (1986)
Month to date snowfall 0.6 0.3  
Since 1 July snowfall 24.4 31.6  
Snow Depth 0.00 in    
Sea Level Pressure  
Sea Level Pressure 29.93 in    
Wind  
Wind Speed 12 mph (NW)    
Max Wind Speed 26 mph    
Max Gust Speed 32 mph    
Visibility 8 miles    
Events Rain , Thunderstorm    
T = Trace of Precipitation, MM = Missing Value Source: NWS Daily Summary

Daily Weather History Graph

Daily Weather History Graph

Search for Another Location

Airport or City:

Trip Planner

Search our weather history database for the weather conditions in past years. The results will help you decide how hot, cold, wet, or windy it might be!

Date:

Astronomy

May. 08, 2013 Rise Set
Actual Time 5:53 AM MDT 7:56 PM MDT
Civil Twilight 5:24 AM MDT 8:25 PM MDT
Nautical Twilight 4:48 AM MDT 9:01 PM MDT
Astronomical Twilight 4:10 AM MDT 9:39 PM MDT
Moon 5:01 AM MDT (5/8) 6:57 PM MDT (5/8)
Length of Visible Light 15h 01m
Length of Day
14h 02m
Waning Crescent, 2% of the Moon is Illuminated
May 8
Waning Crescent
May 9
New
May 17
First Quarter
May 24
Full
May 31
Last Quarter

Hourly Weather History & Observations

Time (MDT) Temp. Dew Point Humidity Pressure Visibility Wind Dir Wind Speed Gust Speed Precip Events Conditions
12:53 AM 54.0 °F 37.0 °F 53% 29.81 in 10.0 mi North 16.1 mph - N/A   Clear
1:53 AM 54.0 °F 39.0 °F 57% 29.80 in 10.0 mi North 17.3 mph - N/A   Clear
2:53 AM 54.0 °F 39.0 °F 57% 29.81 in 10.0 mi NNW 6.9 mph - N/A   Mostly Cloudy
3:53 AM 55.0 °F 37.9 °F 53% 29.83 in 10.0 mi NNW 6.9 mph - N/A   Overcast
4:53 AM 53.1 °F 39.0 °F 59% 29.83 in 10.0 mi WSW 9.2 mph - N/A   Overcast
5:02 AM 53.6 °F 41.0 °F 62% 29.99 in 10.0 mi SW 10.4 mph - 0.00 in Rain , Thunderstorm Light Rain
5:17 AM 51.8 °F 44.6 °F 76% 30.00 in 1.8 mi WSW 8.1 mph 23.0 mph 0.07 in Rain , Thunderstorm Heavy Rain
5:24 AM 50.0 °F 44.6 °F 82% 29.99 in 1.2 mi West 4.6 mph - 0.21 in Rain , Thunderstorm Heavy Rain
5:29 AM 50.0 °F 46.4 °F 87% 29.99 in 2.0 mi NW 5.8 mph - 0.24 in Rain , Thunderstorm Rain
5:32 AM 50.0 °F 46.4 °F 87% 29.98 in 3.0 mi NNW 5.8 mph - 0.25 in Rain Light Rain
5:53 AM 50.0 °F 46.0 °F 86% 29.85 in 10.0 mi NW 11.5 mph - 0.25 in Rain Light Rain
6:00 AM 50.0 °F 46.4 °F 87% 29.98 in 10.0 mi NNW 11.5 mph - 0.00 in Thunderstorm Mostly Cloudy
6:20 AM 50.0 °F 44.6 °F 82% 29.98 in 10.0 mi NNW 9.2 mph - 0.00 in   Scattered Clouds
6:53 AM 50.0 °F 45.0 °F 83% 29.88 in 10.0 mi NNW 9.2 mph - 0.00 in   Mostly Cloudy
7:53 AM 52.0 °F 45.0 °F 77% 29.90 in 10.0 mi West 10.4 mph - N/A   Overcast
8:39 AM 53.6 °F 46.4 °F 77% 30.00 in 10.0 mi NW 9.2 mph - N/A Thunderstorm Thunderstorm
8:53 AM 52.0 °F 45.0 °F 77% 29.91 in 10.0 mi WNW 12.7 mph - N/A Thunderstorm Thunderstorm
9:46 AM 48.2 °F 44.6 °F 87% 30.03 in 2.5 mi WNW 10.4 mph - 0.04 in Rain Rain
9:53 AM 50.0 °F 45.0 °F 83% 29.95 in 5.0 mi NW 9.2 mph - 0.08 in Rain Light Rain
10:04 AM 50.0 °F 44.6 °F 82% 30.03 in 5.0 mi Calm Calm - 0.01 in Rain , Thunderstorm Light Rain
10:18 AM 48.2 °F 46.4 °F 93% 30.05 in 5.0 mi SSW 15.0 mph - 0.02 in Rain , Thunderstorm Light Rain
10:39 AM 48.2 °F 44.6 °F 87% 30.05 in 5.0 mi NNW 5.8 mph - 0.06 in Rain Light Rain
10:53 AM 48.9 °F 46.0 °F 90% 29.96 in 5.0 mi NNE 9.2 mph - 0.06 in Rain Light Rain
11:53 AM 52.0 °F 42.1 °F 69% 29.92 in 10.0 mi WSW 10.4 mph 24.2 mph 0.01 in   Overcast
12:53 PM 54.0 °F 42.1 °F 64% 29.92 in 10.0 mi North 8.1 mph - N/A   Mostly Cloudy
1:53 PM 57.0 °F 44.1 °F 62% 29.88 in 10.0 mi North 19.6 mph - N/A   Clear
2:53 PM 57.9 °F 44.1 °F 60% 29.88 in 10.0 mi North 19.6 mph - N/A   Clear
3:48 PM 51.8 °F 39.2 °F 62% 30.02 in 10.0 mi West 24.2 mph 31.1 mph 0.00 in Rain Light Rain
3:53 PM 51.1 °F 39.9 °F 66% 29.93 in 10.0 mi West 18.4 mph 28.8 mph 0.00 in Rain Light Rain
4:00 PM 51.8 °F 39.2 °F 62% 30.00 in 10.0 mi WNW 21.9 mph 27.6 mph 0.00 in Rain Light Rain
4:19 PM 53.6 °F 39.2 °F 58% 29.95 in 10.0 mi NW 19.6 mph 26.5 mph 0.00 in   Overcast
4:53 PM 57.0 °F 39.9 °F 53% 29.83 in 10.0 mi NNW 23.0 mph 31.1 mph 0.00 in   Clear
5:42 PM 57.2 °F 39.2 °F 51% 29.95 in 10.0 mi West 11.5 mph - N/A   Clear
5:53 PM 59.0 °F 37.9 °F 46% 29.86 in 10.0 mi West 12.7 mph - N/A   Clear
6:53 PM 55.0 °F 41.0 °F 59% 29.88 in 10.0 mi NE 9.2 mph - N/A   Clear
7:53 PM 51.1 °F 41.0 °F 68% 29.91 in 10.0 mi NNE 10.4 mph - N/A   Clear
8:53 PM 50.0 °F 39.9 °F 68% 29.95 in 10.0 mi NE 11.5 mph - N/A   Clear
9:53 PM 48.0 °F 41.0 °F 77% 29.99 in 10.0 mi North 9.2 mph - N/A   Clear
10:53 PM 48.9 °F 39.9 °F 71% 29.99 in 10.0 mi North 17.3 mph - N/A   Mostly Cloudy
11:53 PM 48.9 °F 41.0 °F 74% 30.00 in 10.0 mi North 11.5 mph - N/A   Clear